Location: Krakow
(50.0830°N, 19.9170°E)
Time: 10:51:14
(UTC+02:00)

A-11 Canister half - Pass Details

Date: 24 March 2026
Orbit: 1523 x 1684 km, 47.3° (Epoch: 16 April)

Event Time Altitude Azimuth Distance (km) Brightness Sun altitude
Rises 11:57:24 0° 284° (WNW) 4,857 11.5 41.4°
Reaches altitude 10° 12:00:38 10° 281° (W) 3,848 11.2 41.3°
Maximum altitude 12:10:00 55° 207° (SSW) 1,854 11.3 41.2°
Drops below altitude 10° 12:19:04 10° 134° (SE) 3,720 11.5 41.0°
Sets 12:22:09 0° 130° (SE) 4,687 11.8 40.9°
